When you browse on this site, cookies collect data to enhance your experience and personalize the content and advertising you see.
Visit our Privacy Policy to learn more. By continuing to use the site, you agree to this use of cookies and data.
  • In Österreich
  • Länderverzeichnis
  • Für 7 Tage
  • Wassertemperatur
  • Wetterkarte
  • News
  • Widgets
  • user-avatar
    Anmelden

    Stündliche Wetter Lunin

    Heute, 18 September, Mittwoch

    Zeit Temperatur Niederschläge Wind Luftdruck Luftfeuchtigkeit
    00:00 +8°C° 1.1 mm 4 m/S 739 mmHg 85%
    01:00 +7°C° 1.1 mm 4 m/S 738 mmHg 88%
    02:00 +6°C° 0 mm 4 m/S 738 mmHg 92%
    03:00 +6°C° 1.2 mm 5 m/S 738 mmHg 91%
    04:00 +6°C° 1.2 mm 5 m/S 738 mmHg 90%
    05:00 +5°C° 1.2 mm 6 m/S 738 mmHg 88%
    06:00 +5°C° 0.1 mm 6 m/S 738 mmHg 88%
    07:00 +5°C° 0.1 mm 6 m/S 739 mmHg 87%
    08:00 +5°C° 0.1 mm 7 m/S 739 mmHg 86%
    09:00 +5°C° 0.1 mm 6 m/S 740 mmHg 84%
    10:00 +7°C° 0.1 mm 6 m/S 740 mmHg 81%
    11:00 +7°C° 0.1 mm 6 m/S 741 mmHg 79%
    12:00 +8°C° 0.1 mm 6 m/S 741 mmHg 76%
    13:00 +8°C° 0.1 mm 7 m/S 741 mmHg 74%
    14:00 +9°C° 0.1 mm 7 m/S 742 mmHg 71%
    15:00 +9°C° 0.1 mm 6 m/S 743 mmHg 70%
    16:00 +10°C° 0.1 mm 6 m/S 743 mmHg 70%
    17:00 +10°C° 0.1 mm 6 m/S 744 mmHg 69%
    18:00 +9°C° 0 mm 5 m/S 744 mmHg 74%
    19:00 +8°C° 0 mm 5 m/S 745 mmHg 79%
    20:00 +7°C° 0 mm 5 m/S 745 mmHg 84%
    21:00 +7°C° 0 mm 5 m/S 746 mmHg 84%
    22:00 +7°C° 0 mm 5 m/S 746 mmHg 84%
    23:00 +7°C° 0 mm 5 m/S 746 mmHg 84%

    Morgen, 19 September, Donnerstag

    Zeit Temperatur Niederschläge Wind Luftdruck Luftfeuchtigkeit
    00:00 +7°C° 0 mm 5 m/S 747 mmHg 86%
    01:00 +7°C° 0 mm 5 m/S 747 mmHg 87%
    02:00 +6°C° 0 mm 5 m/S 747 mmHg 89%
    03:00 +6°C° 0 mm 5 m/S 748 mmHg 89%
    04:00 +6°C° 0 mm 5 m/S 748 mmHg 89%
    05:00 +6°C° 0 mm 5 m/S 748 mmHg 89%
    06:00 +6°C° 0 mm 5 m/S 748 mmHg 88%
    07:00 +7°C° 0 mm 5 m/S 749 mmHg 86%
    08:00 +7°C° 0 mm 5 m/S 749 mmHg 84%
    09:00 +7°C° 0 mm 5 m/S 749 mmHg 82%
    10:00 +8°C° 0 mm 5 m/S 750 mmHg 80%
    11:00 +8°C° 0 mm 4 m/S 750 mmHg 78%
    12:00 +10°C° 0 mm 4 m/S 750 mmHg 73%
    13:00 +11°C° 0 mm 4 m/S 750 mmHg 67%
    14:00 +12°C° 0 mm 4 m/S 750 mmHg 62%
    15:00 +12°C° 0.1 mm 4 m/S 750 mmHg 64%
    16:00 +12°C° 0.1 mm 3 m/S 750 mmHg 66%
    17:00 +12°C° 0.1 mm 3 m/S 751 mmHg 67%
    18:00 +11°C° 0.2 mm 3 m/S 751 mmHg 74%
    19:00 +9°C° 0.2 mm 3 m/S 751 mmHg 81%
    20:00 +8°C° 0.2 mm 3 m/S 751 mmHg 88%
    21:00 +8°C° 0 mm 3 m/S 751 mmHg 89%
    22:00 +7°C° 0 mm 3 m/S 751 mmHg 90%
    23:00 +7°C° 0 mm 3 m/S 751 mmHg 91%

    übermorgen, 20 September, Freitag

    Zeit Temperatur Niederschläge Wind Luftdruck Luftfeuchtigkeit
    00:00 +7°C° 0 mm 3 m/S 751 mmHg 92%
    01:00 +5°C° 0 mm 3 m/S 751 mmHg 93%
    02:00 +5°C° 0 mm 4 m/S 751 mmHg 94%
    03:00 +5°C° 0 mm 4 m/S 751 mmHg 93%
    04:00 +5°C° 0 mm 4 m/S 751 mmHg 92%
    05:00 +5°C° 0 mm 4 m/S 751 mmHg 91%
    06:00 +5°C° 0 mm 5 m/S 751 mmHg 90%
    07:00 +5°C° 0 mm 5 m/S 751 mmHg 89%
    08:00 +5°C° 0 mm 5 m/S 752 mmHg 87%
    09:00 +7°C° 0 mm 5 m/S 752 mmHg 79%
    10:00 +8°C° 0 mm 6 m/S 752 mmHg 72%
    11:00 +9°C° 0 mm 6 m/S 753 mmHg 64%
    12:00 +9°C° 0.2 mm 6 m/S 753 mmHg 60%
    13:00 +10°C° 0.2 mm 6 m/S 753 mmHg 56%
    14:00 +10°C° 0.2 mm 6 m/S 753 mmHg 53%
    15:00 +10°C° 0.1 mm 5 m/S 753 mmHg 55%
    16:00 +9°C° 0.1 mm 5 m/S 753 mmHg 58%
    17:00 +10°C° 0.1 mm 4 m/S 753 mmHg 60%
    18:00 +8°C° 0 mm 3 m/S 753 mmHg 65%
    19:00 +7°C° 0 mm 3 m/S 753 mmHg 69%
    20:00 +6°C° 0 mm 2 m/S 754 mmHg 74%
    21:00 +5°C° 0 mm 2 m/S 754 mmHg 76%
    22:00 +5°C° 0 mm 2 m/S 754 mmHg 78%
    23:00 +4°C° 0 mm 2 m/S 755 mmHg 80%

    21 September, Samstag

    Zeit Temperatur Niederschläge Wind Luftdruck Luftfeuchtigkeit
    00:00 +4°C° 0 mm 2 m/S 755 mmHg 81%
    01:00 +4°C° 0 mm 2 m/S 755 mmHg 82%
    02:00 +3°C° 0 mm 2 m/S 755 mmHg 82%
    03:00 +3°C° 0 mm 2 m/S 755 mmHg 81%
    04:00 +3°C° 0 mm 2 m/S 755 mmHg 81%
    05:00 +3°C° 0 mm 2 m/S 755 mmHg 80%
    06:00 +4°C° 0 mm 2 m/S 755 mmHg 77%
    07:00 +6°C° 0 mm 2 m/S 755 mmHg 75%
    08:00 +7°C° 0 mm 2 m/S 755 mmHg 72%
    09:00 +8°C° 0 mm 3 m/S 754 mmHg 71%
    10:00 +9°C° 0 mm 3 m/S 754 mmHg 70%
    11:00 +10°C° 0 mm 4 m/S 754 mmHg 69%
    12:00 +10°C° 0.1 mm 4 m/S 754 mmHg 73%
    13:00 +10°C° 0.1 mm 4 m/S 754 mmHg 76%
    14:00 +11°C° 0.1 mm 4 m/S 753 mmHg 79%
    15:00 +12°C° 0 mm 4 m/S 753 mmHg 77%
    16:00 +13°C° 0 mm 4 m/S 753 mmHg 75%
    17:00 +14°C° 0 mm 4 m/S 752 mmHg 73%
    18:00 +14°C° 0 mm 4 m/S 752 mmHg 75%
    19:00 +13°C° 0 mm 4 m/S 752 mmHg 76%
    20:00 +13°C° 0 mm 4 m/S 752 mmHg 78%
    21:00 +12°C° 0 mm 4 m/S 752 mmHg 81%
    22:00 +11°C° 0 mm 4 m/S 752 mmHg 84%
    23:00 +10°C° 0 mm 5 m/S 752 mmHg 88%

    22 September, Sonntag

    Zeit Temperatur Niederschläge Wind Luftdruck Luftfeuchtigkeit
    00:00 +9°C° 0 mm 5 m/S 752 mmHg 88%
    01:00 +9°C° 0 mm 5 m/S 752 mmHg 87%
    02:00 +9°C° 0 mm 5 m/S 752 mmHg 87%
    03:00 +9°C° 0 mm 5 m/S 752 mmHg 89%
    04:00 +8°C° 0 mm 4 m/S 752 mmHg 90%
    05:00 +8°C° 0 mm 4 m/S 751 mmHg 91%
    06:00 +10°C° 0 mm 4 m/S 751 mmHg 89%
    07:00 +10°C° 0 mm 4 m/S 751 mmHg 86%
    08:00 +11°C° 0 mm 4 m/S 751 mmHg 84%
    09:00 +12°C° 0 mm 4 m/S 751 mmHg 80%
    10:00 +13°C° 0 mm 4 m/S 751 mmHg 76%
    11:00 +16°C° 0 mm 3 m/S 752 mmHg 73%
    12:00 +17°C° 0 mm 3 m/S 751 mmHg 68%
    13:00 +18°C° 0 mm 3 m/S 751 mmHg 64%
    14:00 +19°C° 0 mm 3 m/S 751 mmHg 59%
    15:00 +18°C° 0 mm 2 m/S 751 mmHg 62%
    16:00 +18°C° 0 mm 2 m/S 751 mmHg 65%
    17:00 +19°C° 0 mm 1 m/S 750 mmHg 69%
    18:00 +16°C° 0 mm 1 m/S 750 mmHg 74%
    19:00 +14°C° 0 mm 1 m/S 750 mmHg 79%
    20:00 +13°C° 0 mm 2 m/S 750 mmHg 83%
    21:00 +12°C° 0 mm 2 m/S 751 mmHg 84%
    22:00 +11°C° 0 mm 3 m/S 751 mmHg 85%
    23:00 +10°C° 0 mm 3 m/S 751 mmHg 85%

    23 September, Montag

    Zeit Temperatur Niederschläge Wind Luftdruck Luftfeuchtigkeit
    00:00 +10°C° 0 mm 3 m/S 751 mmHg 83%
    01:00 +10°C° 0 mm 3 m/S 751 mmHg 80%
    02:00 +10°C° 0 mm 3 m/S 751 mmHg 78%
    03:00 +9°C° 0 mm 3 m/S 750 mmHg 78%
    04:00 +9°C° 0 mm 3 m/S 750 mmHg 79%
    05:00 +8°C° 0 mm 3 m/S 749 mmHg 79%
    06:00 +7°C° 0 mm 4 m/S 749 mmHg 76%
    07:00 +8°C° 0 mm 4 m/S 749 mmHg 73%
    08:00 +8°C° 0 mm 4 m/S 749 mmHg 70%
    09:00 +10°C° 0 mm 4 m/S 749 mmHg 67%
    10:00 +12°C° 0 mm 4 m/S 749 mmHg 64%
    11:00 +13°C° 0 mm 4 m/S 749 mmHg 61%
    12:00 +14°C° 0 mm 4 m/S 748 mmHg 59%
    13:00 +14°C° 0 mm 4 m/S 747 mmHg 58%
    14:00 +15°C° 0 mm 4 m/S 747 mmHg 57%
    15:00 +15°C° 0 mm 4 m/S 747 mmHg 59%
    16:00 +14°C° 0 mm 4 m/S 747 mmHg 61%
    17:00 +14°C° 0 mm 3 m/S 746 mmHg 63%
    18:00 +12°C° 0 mm 3 m/S 746 mmHg 65%
    19:00 +11°C° 0 mm 3 m/S 746 mmHg 68%
    20:00 +8°C° 0 mm 4 m/S 746 mmHg 70%
    21:00 +8°C° 0 mm 3 m/S 746 mmHg 70%
    22:00 +8°C° 0 mm 3 m/S 746 mmHg 69%
    23:00 +7°C° 0 mm 3 m/S 746 mmHg 68%
    Mehr zeigen